TimeEDT,TemperatureF,Dew PointF,Humidity,Sea Level PressureIn,VisibilityMPH,Wind Direction,Wind SpeedMPH,Gust SpeedMPH,PrecipitationIn,Events,Conditions,WindDirDegrees,DateUTC
12:53 AM,53.1,51.1,93,30.11,10.0,Calm,Calm,-,N/A,,Clear,0,2013-08-07 04:53:00
1:53 AM,50.0,48.9,96,30.12,4.0,Calm,Calm,-,N/A,,Clear,0,2013-08-07 05:53:00
2:53 AM,48.0,48.0,100,30.13,10.0,Calm,Calm,-,N/A,,Clear,0,2013-08-07 06:53:00
3:53 AM,51.1,48.9,92,30.14,10.0,Calm,Calm,-,N/A,,Clear,0,2013-08-07 07:53:00
4:53 AM,48.9,48.0,97,30.16,10.0,Calm,Calm,-,N/A,,Clear,0,2013-08-07 08:53:00
5:53 AM,48.0,46.9,96,30.17,10.0,Calm,Calm,-,N/A,,Clear,0,2013-08-07 09:53:00
6:53 AM,54.0,52.0,93,30.18,10.0,Calm,Calm,-,N/A,,Clear,0,2013-08-07 10:53:00
7:53 AM,61.0,55.9,83,30.18,10.0,Calm,Calm,-,N/A,,Clear,0,2013-08-07 11:53:00
8:53 AM,66.0,57.9,75,30.18,10.0,Calm,Calm,-,N/A,,Clear,0,2013-08-07 12:53:00
9:53 AM,72.0,60.1,66,30.17,10.0,Calm,Calm,-,N/A,,Clear,0,2013-08-07 13:53:00
10:53 AM,75.0,57.0,53,30.16,10.0,Variable,3.5,-,N/A,,Clear,0,2013-08-07 14:53:00
11:53 AM,77.0,54.0,45,30.15,10.0,Variable,4.6,-,N/A,,Partly Cloudy,0,2013-08-07 15:53:00
12:53 PM,75.9,55.9,50,30.14,10.0,Calm,Calm,-,N/A,,Mostly Cloudy,0,2013-08-07 16:53:00
1:53 PM,78.1,54.0,43,30.13,10.0,Variable,6.9,-,N/A,,Scattered Clouds,0,2013-08-07 17:53:00
2:53 PM,79.0,53.1,40,30.13,10.0,SSW,11.5,18.4,N/A,,Partly Cloudy,210,2013-08-07 18:53:00
3:53 PM,79.0,54.0,42,30.12,10.0,SW,8.1,-,N/A,,Clear,220,2013-08-07 19:53:00
4:53 PM,79.0,53.1,40,30.11,10.0,SW,10.4,-,N/A,,Clear,220,2013-08-07 20:53:00
5:53 PM,77.0,53.1,43,30.10,10.0,SSW,6.9,-,N/A,,Clear,200,2013-08-07 21:53:00
6:53 PM,75.0,53.1,46,30.10,10.0,SSW,5.8,-,N/A,,Clear,200,2013-08-07 22:53:00
7:53 PM,69.1,55.0,61,30.10,10.0,South,3.5,-,N/A,,Clear,180,2013-08-07 23:53:00
8:53 PM,66.0,54.0,65,30.11,10.0,South,4.6,-,N/A,,Clear,190,2013-08-08 00:53:00
9:53 PM,63.0,53.1,70,30.11,10.0,South,3.5,-,N/A,,Clear,180,2013-08-08 01:53:00
10:53 PM,61.0,53.1,75,30.11,10.0,South,3.5,-,N/A,,Clear,180,2013-08-08 02:53:00
11:53 PM,60.1,51.1,72,30.11,10.0,South,5.8,-,N/A,,Clear,190,2013-08-08 03:53:00